Rakoskert, Hungary

6:31 AM CET on December 08, 2016 (GMT +0100)
Ferihegy

Weather History for LHBP - April, 2014

Change the Weather History Date:

Thursday, April 17, 2014

  Actual Average Record
Temperature  
Mean Temperature 52 °F -  
Max Temperature 57 °F 58 °F 75 °F (2015)
Min Temperature 46 °F 40 °F 30 °F (1997)
Degree Days  
Heating Degree Days 14    
Growing Degree Days 2 (Base 50)    
Moisture  
Dew Point 33 °F    
Average Humidity 50    
Maximum Humidity 62    
Minimum Humidity 44    
Precipitation  
Precipitation 0.00 in - - ()
Sea Level Pressure  
Sea Level Pressure 30.03 in    
Wind  
Wind Speed 16 mph ()    
Max Wind Speed 24 mph    
Max Gust Speed 32 mph    
Visibility 6.2 miles    
Events      
Averages and records for this station are not official NWS values.
T = Trace of Precipitation, MM = Missing Value Source: Averaged Metar Reports

Daily Weather History Graph

Daily Weather History Graph

Search for Another Location

Airport or City:

Trip Planner

Search our weather history database for the weather conditions in past years. The results will help you decide how hot, cold, wet, or windy it might be!

Date:

Astronomy

Apr. 17, 2014 Rise Set
Actual Time 5:51 AM CEST 7:34 PM CEST
Civil Twilight 5:18 AM CEST 8:07 PM CEST
Nautical Twilight 4:39 AM CEST 8:47 PM CEST
Astronomical Twilight 3:56 AM CEST 9:30 PM CEST
Moon 10:10 PM CEST (4/17) 7:02 AM CEST (4/17)
Length of Visible Light 14h 48m
Length of Day
13h 43m
Waning Gibbous, 95% of the Moon is Illuminated
Apr 17
Waning Gibbous
Apr 22
Last Quarter
Apr 29
New
May 7
First Quarter
May 14
Full

Hourly Weather History & Observations

Time (CEST) Temp. Windchill Dew Point Humidity Pressure Visibility Wind Dir Wind Speed Gust Speed Precip Events Conditions
12:00 AM 46.4 °F 38.3 °F 30.2 °F 53% 30.12 in - North 23.0 mph - N/A   Clear
12:30 AM 46.4 °F 38.5 °F 30.2 °F 53% 30.12 in - North 21.9 mph - N/A   Clear
1:00 AM 46.4 °F 38.7 °F 30.2 °F 53% 30.12 in - North 20.7 mph - N/A   Clear
1:30 AM 46.4 °F 38.1 °F 30.2 °F 53% 30.09 in - North 24.2 mph - N/A   Clear
2:00 AM 46.4 °F 38.5 °F 30.2 °F 53% 30.09 in - North 21.9 mph - N/A   Clear
2:30 AM 46.4 °F 38.5 °F 30.2 °F 53% 30.09 in - North 21.9 mph - N/A   Clear
3:00 AM 46.4 °F 38.5 °F 28.4 °F 50% 30.09 in - North 21.9 mph - N/A   Clear
3:30 AM 46.4 °F 38.7 °F 28.4 °F 50% 30.09 in - North 20.7 mph - N/A   Clear
4:00 AM 46.4 °F 39.0 °F 28.4 °F 50% 30.06 in - North 19.6 mph - N/A   Clear
4:30 AM 46.4 °F 38.7 °F 28.4 °F 50% 30.06 in - North 20.7 mph - N/A   Clear
5:00 AM 46.4 °F 39.0 °F 28.4 °F 50% 30.06 in - North 19.6 mph - N/A   Clear
5:30 AM 46.4 °F 38.7 °F 28.4 °F 50% 30.06 in - North 20.7 mph - N/A   Clear
6:00 AM 46.4 °F 38.5 °F 28.4 °F 50% 30.06 in - North 21.9 mph - N/A   Clear
6:30 AM 46.4 °F 38.5 °F 28.4 °F 50% 30.06 in - North 21.9 mph - N/A   Clear
7:00 AM 46.4 °F 38.7 °F 28.4 °F 50% 30.06 in - North 20.7 mph 32.2 mph N/A   Clear
7:30 AM 46.4 °F 38.7 °F 30.2 °F 53% 30.06 in 6.2 mi North 20.7 mph - N/A   Mostly Cloudy
8:00 AM 46.4 °F 38.3 °F 30.2 °F 53% 30.06 in 6.2 mi North 23.0 mph - N/A   Mostly Cloudy
8:30 AM 46.4 °F 38.5 °F 30.2 °F 53% 30.04 in - North 21.9 mph - N/A   Clear
9:00 AM 48.2 °F - 30.2 °F 50% 30.06 in - NNE 20.7 mph - N/A   Clear
9:30 AM 48.2 °F - 32.0 °F 54% 30.06 in - NNE 21.9 mph - N/A   Clear
10:00 AM 50.0 °F - 32.0 °F 50% 30.06 in - NNE 20.7 mph - N/A   Clear
10:30 AM 50.0 °F - 32.0 °F 50% 30.04 in - NNE 19.6 mph - N/A   Clear
11:00 AM 51.8 °F - 33.8 °F 50% 30.06 in - NNE 16.1 mph - N/A   Clear
11:30 AM 51.8 °F - 33.8 °F 50% 30.04 in - NNE 15.0 mph - N/A   Clear
12:00 PM 51.8 °F - 33.8 °F 50% 30.04 in - NNE 13.8 mph - N/A   Clear
12:30 PM 53.6 °F - 33.8 °F 47% 30.04 in 6.2 mi NNE 13.8 mph - N/A   Mostly Cloudy
1:00 PM 53.6 °F - 35.6 °F 51% 30.04 in 6.2 mi NNE 15.0 mph - N/A   Mostly Cloudy
1:30 PM 53.6 °F - 33.8 °F 47% 30.04 in 6.2 mi NNE 13.8 mph - N/A   Mostly Cloudy
2:00 PM 53.6 °F - 33.8 °F 47% 30.04 in 6.2 mi NNE 12.7 mph - N/A   Mostly Cloudy
2:30 PM 53.6 °F - 35.6 °F 51% 30.01 in - NNE 10.4 mph - N/A   Clear
3:00 PM 55.4 °F - 35.6 °F 47% 30.01 in - NE 10.4 mph - N/A   Clear
3:30 PM 55.4 °F - 33.8 °F 44% 30.01 in - NNE 11.5 mph - N/A   Clear
4:00 PM 55.4 °F - 33.8 °F 44% 30.01 in - NNE 6.9 mph - N/A   Clear
4:30 PM 57.2 °F - 35.6 °F 44% 29.98 in - North 9.2 mph - N/A   Clear
5:00 PM 57.2 °F - 35.6 °F 44% 29.98 in - North 9.2 mph - N/A   Clear
5:30 PM 57.2 °F - 35.6 °F 44% 29.98 in - North 11.5 mph - N/A   Clear
6:00 PM 57.2 °F - 35.6 °F 44% 29.98 in - North 6.9 mph - N/A   Clear
6:30 PM 57.2 °F - 35.6 °F 44% 29.98 in - NNW 8.1 mph - N/A   Clear
7:00 PM 55.4 °F - 37.4 °F 51% 29.98 in - NW 6.9 mph - N/A   Clear
7:30 PM 55.4 °F - 37.4 °F 51% 29.98 in - NW 9.2 mph - N/A   Clear
8:00 PM 53.6 °F - 37.4 °F 54% 29.98 in - NW 8.1 mph - N/A   Clear
8:30 PM 55.4 °F - 37.4 °F 51% 29.98 in - NNW 8.1 mph - N/A   Clear
9:00 PM 55.4 °F - 37.4 °F 51% 29.95 in - NNW 8.1 mph - N/A   Clear
9:30 PM 53.6 °F - 37.4 °F 54% 29.95 in - North 9.2 mph - N/A   Clear
10:00 PM 53.6 °F - 37.4 °F 54% 29.95 in - NNW 9.2 mph - N/A   Clear
10:30 PM 53.6 °F - 37.4 °F 54% 29.95 in - NNW 9.2 mph - N/A   Clear
11:00 PM 53.6 °F - 37.4 °F 54% 29.95 in - North 10.4 mph - N/A   Clear
11:30 PM 50.0 °F - 37.4 °F 62% 29.95 in - NNW 8.1 mph - N/A   Clear